| time (UTC) | temp F | wind direction | speed MPH | gust MPH | rain 1hr in | rain 24hr in | rain mn in | humidity % | barometer mb |
| 20260509213049 | 47 | 46 | 2.0 | 8.0 | 0.00 | 0.00 | 0.00 | 83 | 1019.4 |
| 20260509211546 | 47 | 77 | 4.0 | 10.0 | 0.00 | 0.00 | 0.00 | 82 | 1019.4 |
| 20260509210049 | 47 | 59 | 5.0 | 10.0 | 0.00 | 0.00 | 0.00 | 82 | 1019.2 |
| 20260509204551 | 47 | 67 | 4.0 | 11.0 | 0.00 | 0.00 | 0.00 | 82 | 1019.2 |
| 20260509203046 | 47 | 80 | 5.0 | 10.0 | 0.00 | 0.00 | 0.00 | 83 | 1019.2 |
| 20260509201558 | 47 | 57 | 5.0 | 13.0 | 0.00 | 0.00 | 0.00 | 82 | 1019.2 |
| 20260509200058 | 47 | 65 | 4.0 | 12.0 | 0.00 | 0.00 | 0.00 | 82 | 1019.2 |
| 20260509194545 | 48 | 78 | 6.0 | 11.0 | 0.00 | 0.00 | 0.00 | 82 | 1019.1 |
| 20260509193048 | 48 | 77 | 5.0 | 13.0 | 0.00 | 0.00 | 0.00 | 82 | 1019.0 |
| 20260509191546 | 48 | 48 | 5.0 | 13.0 | 0.00 | 0.00 | 0.00 | 81 | 1018.9 |
| 20260509190103 | 48 | 50 | 7.0 | 13.0 | 0.00 | 0.00 | 0.00 | 81 | 1018.8 |
| 20260509184547 | 48 | 40 | 8.0 | 14.0 | 0.00 | 0.04 | 0.00 | 81 | 1018.8 |
| 20260509183049 | 49 | 56 | 8.0 | 15.0 | 0.00 | 0.04 | 0.00 | 81 | 1018.5 |
| 20260509181548 | 49 | 82 | 9.0 | 16.0 | 0.00 | 0.04 | 0.00 | 81 | 1018.6 |
| 20260509180051 | 49 | 38 | 9.0 | 16.0 | 0.00 | 0.04 | 0.00 | 81 | 1018.5 |
| 20260509174543 | 49 | 58 | 9.0 | 16.0 | 0.00 | 0.05 | 0.00 | 81 | 1018.4 |
| 20260509173049 | 49 | 38 | 11.0 | 19.0 | 0.00 | 0.05 | 0.00 | 81 | 1018.3 |
| 20260509171548 | 50 | 29 | 11.0 | 17.0 | 0.00 | 0.05 | 0.00 | 81 | 1018.2 |
| 20260509170044 | 50 | 47 | 9.0 | 16.0 | 0.00 | 0.05 | 0.00 | 81 | 1018.0 |
| 20260509164551 | 50 | 23 | 11.0 | 19.0 | 0.00 | 0.06 | 0.00 | 80 | 1018.0 |
| 20260509163051 | 50 | 49 | 11.0 | 19.0 | 0.00 | 0.06 | 0.00 | 80 | 1018.1 |
| 20260509161556 | 51 | 49 | 12.0 | 18.0 | 0.00 | 0.06 | 0.00 | 80 | 1018.0 |
| 20260509160053 | 51 | 40 | 11.0 | 19.0 | 0.00 | 0.06 | 0.00 | 79 | 1018.2 |
| 20260509154550 | 52 | 43 | 10.0 | 18.0 | 0.00 | 0.06 | 0.00 | 78 | 1018.0 |
| 20260509153053 | 52 | 57 | 12.0 | 19.0 | 0.00 | 0.06 | 0.00 | 78 | 1018.0 |
| 20260509151548 | 52 | 46 | 11.0 | 19.0 | 0.00 | 0.06 | 0.00 | 79 | 1017.9 |
| 20260509150051 | 52 | 32 | 11.0 | 20.0 | 0.00 | 0.06 | 0.00 | 78 | 1018.0 |
| 20260509144547 | 53 | 45 | 11.0 | 19.0 | 0.00 | 0.06 | 0.00 | 78 | 1017.8 |
| 20260509143056 | 53 | 39 | 12.0 | 17.0 | 0.00 | 0.06 | 0.00 | 76 | 1017.9 |
| 20260509141544 | 53 | 58 | 9.0 | 17.0 | 0.00 | 0.06 | 0.00 | 77 | 1018.0 |
| 20260509140100 | 53 | 42 | 12.0 | 17.0 | 0.00 | 0.06 | 0.00 | 77 | 1018.0 |
| 20260509134623 | 54 | 63 | 10.0 | 15.0 | 0.00 | 0.06 | 0.00 | 77 | 1017.9 |
| 20260509133047 | 54 | 52 | 9.0 | 18.0 | 0.00 | 0.06 | 0.00 | 77 | 1018.0 |
| 20260509131551 | 54 | 44 | 11.0 | 17.0 | 0.00 | 0.06 | 0.00 | 76 | 1018.0 |
| 20260509130045 | 54 | 46 | 11.0 | 15.0 | 0.00 | 0.06 | 0.00 | 76 | 1018.1 |
| 20260509124543 | 54 | 35 | 7.0 | 15.0 | 0.00 | 0.06 | 0.00 | 76 | 1018.1 |
| 20260509123047 | 55 | 42 | 12.0 | 17.0 | 0.00 | 0.06 | 0.00 | 74 | 1018.3 |
| 20260509121550 | 55 | 40 | 10.0 | 15.0 | 0.00 | 0.06 | 0.00 | 75 | 1018.4 |
| 20260509120050 | 54 | 41 | 7.0 | 16.0 | 0.00 | 0.06 | 0.00 | 77 | 1018.4 |
| 20260509114548 | 54 | 45 | 9.0 | 16.0 | 0.00 | 0.06 | 0.00 | 78 | 1018.4 |
| 20260509113048 | 52 | 66 | 8.0 | 15.0 | 0.00 | 0.06 | 0.00 | 79 | 1018.7 |
| 20260509111544 | 53 | 47 | 7.0 | 15.0 | 0.00 | 0.06 | 0.00 | 78 | 1018.7 |
| 20260509110042 | 53 | 26 | 9.0 | 14.0 | 0.00 | 0.06 | 0.00 | 77 | 1018.6 |
| 20260509104548 | 53 | 20 | 8.0 | 14.0 | 0.00 | 0.06 | 0.00 | 79 | 1018.6 |
| 20260509103053 | 53 | 58 | 9.0 | 16.0 | 0.00 | 0.06 | 0.00 | 80 | 1018.7 |
| 20260509101601 | 51 | 46 | 8.0 | 15.0 | 0.00 | 0.06 | 0.00 | 80 | 1018.7 |
| 20260509100044 | 52 | 22 | 5.0 | 12.0 | 0.00 | 0.06 | 0.00 | 80 | 1018.8 |
| 20260509094551 | 51 | 44 | 4.0 | 12.0 | 0.00 | 0.07 | 0.00 | 80 | 1018.7 |
| 20260509093058 | 51 | 26 | 8.0 | 13.0 | 0.00 | 0.07 | 0.00 | 80 | 1018.8 |
| 20260509091554 | 51 | 35 | 6.0 | 11.0 | 0.00 | 0.07 | 0.00 | 82 | 1018.8 |
| 20260509090053 | 50 | 15 | 5.0 | 9.0 | 0.00 | 0.07 | 0.00 | 84 | 1018.7 |
| 20260509084550 | 49 | 59 | 6.0 | 10.0 | 0.00 | 0.07 | 0.00 | 85 | 1018.7 |
| 20260509083055 | 49 | 51 | 3.0 | 9.0 | 0.00 | 0.07 | 0.00 | 87 | 1018.8 |
| 20260509081552 | 48 | 85 | 3.0 | 10.0 | 0.00 | 0.07 | 0.00 | 88 | 1018.6 |
| 20260509080044 | 48 | 67 | 6.0 | 10.0 | 0.00 | 0.07 | 0.00 | 88 | 1018.6 |
| 20260509074558 | 48 | 84 | 6.0 | 10.0 | 0.00 | 0.07 | 0.00 | 89 | 1018.4 |
| 20260509073050 | 48 | 42 | 6.0 | 12.0 | 0.00 | 0.07 | 0.00 | 89 | 1018.5 |
| 20260509071550 | 47 | 47 | 5.0 | 13.0 | 0.00 | 0.07 | 0.00 | 89 | 1018.5 |
| 20260509070048 | 47 | 45 | 6.0 | 12.0 | 0.00 | 0.07 | 0.00 | 90 | 1018.4 |
| 20260509064559 | 47 | 92 | 5.0 | 12.0 | 0.00 | 0.07 | 0.00 | 90 | 1018.3 |
| 20260509063046 | 47 | 74 | 6.0 | 12.0 | 0.00 | 0.07 | 0.00 | 90 | 1018.2 |
| 20260509061544 | 47 | 52 | 6.0 | 11.0 | 0.00 | 0.07 | 0.00 | 90 | 1018.3 |
| 20260509060050 | 47 | 90 | 5.0 | 13.0 | 0.00 | 0.07 | 0.00 | 90 | 1018.2 |
| 20260509054549 | 47 | 49 | 6.0 | 11.0 | 0.00 | 0.07 | 0.00 | 90 | 1018.2 |
| 20260509053052 | 47 | 51 | 5.0 | 11.0 | 0.00 | 0.07 | 0.00 | 90 | 1018.1 |
| 20260509051551 | 47 | 55 | 6.0 | 11.0 | 0.00 | 0.07 | 0.00 | 90 | 1018.1 |
| 20260509050046 | 47 | 24 | 5.0 | 11.0 | 0.00 | 0.07 | 0.00 | 90 | 1018.1 |
| 20260509044550 | 47 | 53 | 5.0 | 9.0 | 0.00 | 0.07 | 0.00 | 91 | 1018.1 |
| 20260509043055 | 47 | 72 | 7.0 | 11.0 | 0.00 | 0.07 | 0.00 | 91 | 1017.9 |
| 20260509041548 | 47 | 78 | 6.0 | 10.0 | 0.00 | 0.07 | 0.00 | 91 | 1017.9 |
| 20260509040043 | 47 | 38 | 4.0 | 7.0 | 0.00 | 0.07 | 0.00 | 91 | 1017.9 |
| 20260509034551 | 47 | 46 | 2.0 | 6.0 | 0.00 | 0.07 | 0.00 | 91 | 1017.9 |
| 20260509033054 | 47 | 49 | 1.0 | 7.0 | 0.00 | 0.07 | 0.00 | 91 | 1017.8 |
| 20260509031545 | 47 | 38 | 4.0 | 9.0 | 0.00 | 0.07 | 0.00 | 90 | 1017.8 |
| 20260509030049 | 47 | 39 | 4.0 | 9.0 | 0.00 | 0.07 | 0.00 | 91 | 1017.9 |
| 20260509024617 | 47 | 49 | 4.0 | 8.0 | 0.00 | 0.07 | 0.00 | 91 | 1017.8 |
| 20260509023044 | 47 | 42 | 5.0 | 8.0 | 0.00 | 0.07 | 0.00 | 91 | 1017.8 |
| 20260509021549 | 47 | 360 | 4.0 | 9.0 | 0.00 | 0.07 | 0.00 | 90 | 1017.9 |
| 20260509020043 | 47 | 42 | 5.0 | 9.0 | 0.00 | 0.07 | 0.00 | 90 | 1017.9 |
| 20260509014550 | 48 | 44 | 4.0 | 7.0 | 0.00 | 0.07 | 0.00 | 90 | 1018.0 |
| 20260509013054 | 48 | 44 | 4.0 | 9.0 | 0.00 | 0.07 | 0.00 | 90 | 1018.1 |
| 20260509011549 | 48 | 35 | 4.0 | 9.0 | 0.00 | 0.07 | 0.00 | 90 | 1018.0 |
| 20260509010051 | 48 | 53 | 4.0 | 7.0 | 0.00 | 0.07 | 0.00 | 90 | 1017.9 |
| 20260509004554 | 49 | 63 | 4.0 | 8.0 | 0.00 | 0.07 | 0.00 | 90 | 1017.8 |
| 20260509003048 | 49 | 46 | 5.0 | 9.0 | 0.00 | 0.07 | 0.00 | 90 | 1017.9 |
| 20260509001554 | 49 | 45 | 2.0 | 9.0 | 0.00 | 0.07 | 0.00 | 89 | 1017.9 |
| 20260509000049 | 49 | 21 | 4.0 | 7.0 | 0.00 | 0.07 | 0.00 | 89 | 1018.1 |
| 20260508234552 | 49 | 48 | 3.0 | 8.0 | 0.00 | 0.08 | 0.00 | 89 | 1018.1 |
| 20260508233052 | 50 | 51 | 3.0 | 7.0 | 0.00 | 0.08 | 0.00 | 89 | 1018.1 |
| 20260508231552 | 50 | 55 | 4.0 | 7.0 | 0.00 | 0.08 | 0.00 | 89 | 1018.2 |
| 20260508230051 | 50 | 44 | 2.0 | 6.0 | 0.00 | 0.08 | 0.00 | 89 | 1018.3 |
| 20260508224549 | 50 | 59 | 3.0 | 6.0 | 0.00 | 0.12 | 0.00 | 89 | 1018.4 |
| 20260508223051 | 50 | 57 | 3.0 | 8.0 | 0.00 | 0.12 | 0.00 | 89 | 1018.4 |
| 20260508221555 | 50 | 57 | 4.0 | 6.0 | 0.00 | 0.12 | 0.00 | 88 | 1018.4 |
| 20260508220058 | 50 | 48 | 3.0 | 9.0 | 0.00 | 0.12 | 0.00 | 88 | 1018.3 |
| 20260508214603 | 50 | 42 | 2.0 | 5.0 | 0.00 | 0.12 | 0.12 | 88 | 1018.4 |